Regional Weather Roundup
Issued by NWS

Home | Current Version | Previous Version | Graphics & Text | Print | Product List | Glossary On
Versions: 1 2 3 4 5 6 7 8 9 10 11 12 13 14 15 16 17 18 19 20 21 22 23 24 25 26 27 28 29 30 31 32 33 34 35 36 37 38 39 40 41 42 43 44 45 46 47 48 49 50
000
ASUS43 KBIS 071302
RWRND

NORTH DAKOTA REGIONAL WEATHER ROUNDUP
NATIONAL WEATHER SERVICE BISMARCK ND
700 AM CST WED DEC 07 2016

NOTE: "FAIR" INDICATES FEW OR NO CLOUDS BELOW 12,000 FEET WITH NO
SIGNIFICANT WEATHER AND/OR OBSTRUCTIONS TO VISIBILITY.


NDZ001>003-009>011-017-071400-
NORTHWEST NORTH DAKOTA

CITY           SKY/WX    TMP DP  RH WIND       PRES   REMARKS
WILLISTON      CLOUDY     0  -8  69 NW20G26   30.32R WCI -22
MINOT          LGT SNOW   5   0  79 W32G40    30.12R WCI -20
MINOT AFB      SNOW       3  -1  82 NW38G44   30.10S VSB 1/2 WCI -24
$$

NDZ018>021-031>035-040>046-071400-
SOUTHWEST NORTH DAKOTA

CITY           SKY/WX    TMP DP  RH WIND       PRES   REMARKS
BISMARCK       CLOUDY     6   1  80 NW17G32   30.19R WCI -13
DICKINSON      CLOUDY     2  -4  76 NW22G33   30.19R HAZE    WCI -20
GARRISON         N/A      2  -3  80 NW29G41   30.15R WCI -23
HETTINGER ARPT CLOUDY     2  -4  76 NW24      30.21R WCI -21
$$

NDZ004>008-012>016-024-026-027-054-071400-
NORTHEAST NORTH DAKOTA

CITY           SKY/WX    TMP DP  RH WIND       PRES   REMARKS
GRAND FORKS    LGT SNOW  15  10  80 NW28G33   29.89R BLWGSNOWWCI  -5
GRND FRKS AFB  LGT SNOW  14   9  79 NW23G33   29.89R WCI  -5
DEVILS LAKE    LGT SNOW   9   5  84 NW35G41   29.93R FOG     WCI -15
$$

NDZ022-023-025-028>030-036>039-047>053-071400-
SOUTHEAST NORTH DAKOTA

CITY           SKY/WX    TMP DP  RH WIND       PRES   REMARKS
FARGO          CLOUDY    13   6  74 W24G31    29.96R WCI  -7
JAMESTOWN      LGT SNOW   9   5  84 NW29G38   30.00R FOG     WCI -13
$$




USA.gov is the U.S. government's official web portal to all federal, state and local government web resources and services.